Regional Weather Roundup
Issued by NWS Midland/Odessa, TX

Skip options and go directly to product.
Home | Oldest Version | Previous Version | Current Version | All | Text Only | Save Text | Print | Product List | Glossary On

Skip product version selection by date and time.   
597
ASUS44 KMAF 232301
RWRMAF
MIDLAND AREA WEATHER ROUNDUP
NATIONAL WEATHER SERVICE MIDLAND TX
600 PM CDT SAT JUL 23 2016

...IN SOUTHWEST TEXAS AND SOUTHEAST NEW MEXICO...

CITY           SKY/WX    TMP DP  RH WIND       PRES   REMARKS
ALPINE         MOSUNNY   97  49  19 S9        30.07F
ANDREWS        FAIR      98  53  21 SE6G17    29.96F
ARTESIA        SUNNY    100  41  13 VRB7G16   29.92F
BIG SPRING     MOSUNNY   98  59  27 S10G18    29.95F
CARLSBAD       PTSUNNY  101  39  12 E9        29.90F
DRYDEN           N/A    100  59  25 SE13G22   29.87F HX 100
FORT STOCKTON  SUNNY    100  53  20 SE15G26   29.91F
GUAD PASS      SUNNY     95  38  13 VRB7      30.11F
HOBBS          SUNNY     97  45  16 S8G17     29.98F
MARFA          SUNNY     95  51  22 SE13G20   30.06F
MIDLAND AIRPK  SUNNY    100  54  21 SE13      29.94F
MIDLAND INTL   SUNNY     99  54  22 S13G20    29.93F
ODESSA         SUNNY     98  54  22 S14G20    29.95F
PECOS          SUNNY    103  47  15 CALM      29.86F
PRESIDIO       FAIR     103  51  17 S3        29.87F HX 101
SEMINOLE       SUNNY     98  49  18 SE13      29.97F
SNYDER           N/A     97  61  29 SE8G17    29.94F
WINK           SUNNY    103  51  17 E13G18    29.88F HX 100
$$
...OTHER STATIONS IN TEXAS...

CITY           SKY/WX    TMP DP  RH WIND       PRES   REMARKS
ABILENE        SUNNY     99  61  28 SE13G28   29.91F
AMARILLO       SUNNY     97  50  20 S16G25    29.97F
AUSTIN         MOSUNNY   99  68  36 S8        29.87F HX 104
BROWNSVILLE    SUNNY     91  76  61 E15       29.88F HX 103
CORPUS CHRISTI MOSUNNY   92  73  53 SE16      29.88F HX 100
DALLAS FTW     MOSUNNY   99  67  35 S12       29.86F HX 103
DEL RIO        SUNNY    102  60  25 SE17      29.82F HX 103
EL PASO        MOSUNNY  103  39  11 S7        29.93F
HOUSTON INT    PTSUNNY   94  72  48 S9        29.89F HX 102
LUBBOCK        MOSUNNY   97  55  24 SW7G20    29.97F
SAN ANGELO     SUNNY    100  59  25 S9        29.89F HX 100
SAN ANTONIO    MOSUNNY   97  66  36 S9        29.88F HX 100
WACO           SUNNY     99  66  33 S9        29.88F HX 103
WICHITA FALLS  NOT AVBL
$$
...OTHER LOCATIONS IN NEW MEXICO...

CITY           SKY/WX    TMP DP  RH WIND       PRES   REMARKS
ALAMAGORDO     CLOUDY   100  39  12 W8        29.95F
ALBUQUERQUE    PTSUNNY  100  39  12 NW8       30.02F
CANNON AFB     SUNNY     98  42  14 SE10      30.00F
CLOVIS         SUNNY     99  45  15 S14       30.01F
HOLLOMAN AFB   NOT AVBL
ROSWELL        SUNNY    102  42  13 SE12      29.92F
RUIDOSO          N/A     86  39  19 S12       30.22S
SANTA FE       CLOUDY    93  40  15 N6        30.11F
TRUTH OR CONSE SUNNY    101  38  11 NE8       29.98F
TUCUMCARI      SUNNY    104  38  10 SW13      29.92F
$$

USA.gov is the U.S. government's official web portal to all federal, state and local government web resources and services.